Time,TemperatureF,DewpointF,PressureIn,WindDirection,WindDirectionDegrees,WindSpeedMPH,WindSpeedGustMPH,Humidity,HourlyPrecipIn,Conditions,Clouds,dailyrainin,SoftwareType,DateUTC
2013-09-05 00:12:00,68.0,61.0,30.03,SSE,157,0.0,4.0,79,0.00,,,0.00,,2013-09-05 05:12:00,
2013-09-05 00:23:00,68.0,61.0,30.03,South,171,1.0,6.0,78,0.00,,,0.00,,2013-09-05 05:23:00,
2013-09-05 00:43:00,68.0,61.0,30.02,South,178,1.0,7.0,78,0.00,,,0.00,,2013-09-05 05:43:00,
2013-09-05 00:52:00,68.0,61.0,30.02,SE,136,1.0,5.0,78,0.00,,,0.00,,2013-09-05 05:52:00,
2013-09-05 01:12:00,68.0,61.0,30.03,South,190,0.0,2.0,77,0.00,,,0.00,,2013-09-05 06:12:00,
2013-09-05 01:22:00,68.0,61.0,30.03,SSW,194,0.0,5.0,77,0.00,,,0.00,,2013-09-05 06:22:00,
2013-09-05 01:42:00,68.0,60.0,30.03,South,175,0.0,4.0,76,0.00,,,0.00,,2013-09-05 06:42:00,
2013-09-05 01:52:00,68.0,60.0,30.03,South,171,0.0,3.0,75,0.00,,,0.00,,2013-09-05 06:52:00,
2013-09-05 02:12:00,68.0,60.0,30.04,South,175,0.0,4.0,76,0.00,,,0.00,,2013-09-05 07:12:00,
2013-09-05 02:23:00,67.0,60.0,30.04,South,189,0.0,4.0,77,0.00,,,0.00,,2013-09-05 07:23:00,
2013-09-05 02:42:00,67.0,60.0,30.05,South,176,0.0,3.0,78,0.00,,,0.00,,2013-09-05 07:42:00,
2013-09-05 02:52:00,66.0,59.0,30.04,SE,132,0.0,3.0,78,0.00,,,0.00,,2013-09-05 07:52:00,
2013-09-05 03:12:00,66.0,59.0,30.04,South,175,0.0,4.0,78,0.00,,,0.00,,2013-09-05 08:12:00,
2013-09-05 03:22:00,66.0,59.0,30.04,SSE,158,0.0,3.0,78,0.00,,,0.00,,2013-09-05 08:22:00,
2013-09-05 03:42:00,66.0,60.0,30.04,SSE,166,0.0,2.0,80,0.00,,,0.00,,2013-09-05 08:42:00,
2013-09-05 03:52:00,65.0,59.0,30.04,SSE,157,0.0,3.0,80,0.00,,,0.00,,2013-09-05 08:52:00,
2013-09-05 04:11:00,65.0,59.0,30.04,South,178,0.0,4.0,81,0.00,,,0.00,,2013-09-05 09:11:00,
2013-09-05 04:22:00,65.0,59.0,30.04,South,178,0.0,2.0,82,0.00,,,0.00,,2013-09-05 09:22:00,
2013-09-05 04:43:00,64.0,59.0,30.04,SSE,161,0.0,1.0,83,0.00,,,0.00,,2013-09-05 09:43:00,
2013-09-05 04:53:00,64.0,59.0,30.04,South,172,0.0,2.0,83,0.00,,,0.00,,2013-09-05 09:53:00,
2013-09-05 05:12:00,64.0,59.0,30.04,South,173,0.0,2.0,83,0.00,,,0.00,,2013-09-05 10:12:00,
2013-09-05 05:23:00,64.0,59.0,30.06,South,173,0.0,1.0,84,0.00,,,0.00,,2013-09-05 10:23:00,
2013-09-05 05:43:00,64.0,59.0,30.07,SSW,211,0.0,3.0,85,0.00,,,0.00,,2013-09-05 10:43:00,
2013-09-05 05:53:00,64.0,59.0,30.06,South,181,0.0,2.0,84,0.00,,,0.00,,2013-09-05 10:53:00,
2013-09-05 06:12:00,64.0,59.0,30.06,South,182,0.0,1.0,84,0.00,,,0.00,,2013-09-05 11:12:00,
2013-09-05 06:22:00,64.0,59.0,30.06,South,182,0.0,1.0,85,0.00,,,0.00,,2013-09-05 11:22:00,
2013-09-05 06:42:00,63.0,59.0,30.06,South,181,0.0,2.0,86,0.00,,,0.00,,2013-09-05 11:42:00,
2013-09-05 06:52:00,63.0,59.0,30.06,SE,137,0.0,2.0,86,0.00,,,0.00,,2013-09-05 11:52:00,
2013-09-05 07:12:00,64.0,59.0,30.06,South,173,1.0,4.0,85,0.00,,,0.00,,2013-09-05 12:12:00,
2013-09-05 07:22:00,64.0,59.0,30.06,SSE,150,1.0,5.0,84,0.00,,,0.00,,2013-09-05 12:22:00,
2013-09-05 07:42:00,64.0,59.0,30.05,SE,128,1.0,4.0,84,0.00,,,0.00,,2013-09-05 12:42:00,
2013-09-05 07:52:00,64.0,59.0,30.06,SSE,153,1.0,4.0,84,0.00,,,0.00,,2013-09-05 12:52:00,
2013-09-05 08:12:00,65.0,60.0,30.07,SSE,149,0.0,4.0,83,0.00,,,0.00,,2013-09-05 13:12:00,
2013-09-05 08:21:00,66.0,61.0,30.06,SSW,194,1.0,6.0,83,0.00,,,0.00,,2013-09-05 13:21:00,
2013-09-05 08:42:00,66.0,60.0,30.07,SE,144,1.0,6.0,82,0.00,,,0.00,,2013-09-05 13:42:00,
2013-09-05 08:53:00,68.0,61.0,30.07,SSW,201,2.0,6.0,79,0.00,,,0.00,,2013-09-05 13:53:00,
2013-09-05 09:12:00,69.0,62.0,30.07,SE,146,1.0,7.0,78,0.00,,,0.00,,2013-09-05 14:12:00,
2013-09-05 09:22:00,69.0,61.0,30.07,South,181,2.0,9.0,77,0.00,,,0.00,,2013-09-05 14:22:00,
2013-09-05 09:42:00,71.0,63.0,30.07,SSW,200,2.0,6.0,76,0.00,,,0.00,,2013-09-05 14:42:00,
2013-09-05 09:52:00,72.0,63.0,30.06,South,180,2.0,9.0,73,0.00,,,0.00,,2013-09-05 14:52:00,
2013-09-05 10:11:00,73.0,63.0,30.07,SSW,194,2.0,6.0,71,0.00,,,0.00,,2013-09-05 15:11:00,
2013-09-05 10:22:00,75.0,65.0,30.07,South,184,2.0,6.0,70,0.00,,,0.00,,2013-09-05 15:22:00,
2013-09-05 10:44:00,75.0,64.0,30.07,South,177,1.0,8.0,69,0.00,,,0.00,,2013-09-05 15:44:00,
2013-09-05 10:54:00,76.0,65.0,30.07,South,188,2.0,6.0,68,0.00,,,0.00,,2013-09-05 15:54:00,
2013-09-05 11:13:00,77.0,65.0,30.07,South,190,3.0,8.0,67,0.00,,,0.00,,2013-09-05 16:13:00,
2013-09-05 11:24:00,78.0,66.0,30.07,South,171,1.0,6.0,66,0.00,,,0.00,,2013-09-05 16:24:00,
2013-09-05 11:43:00,81.0,67.0,30.08,SSW,198,2.0,8.0,63,0.00,,,0.00,,2013-09-05 16:43:00,
2013-09-05 11:54:00,82.0,67.0,30.09,ESE,120,2.0,8.0,61,0.00,,,0.00,,2013-09-05 16:54:00,
2013-09-05 12:12:00,83.0,68.0,30.09,South,176,2.0,8.0,60,0.00,,,0.00,,2013-09-05 17:12:00,
2013-09-05 12:23:00,84.0,67.0,30.09,South,169,2.0,9.0,56,0.00,,,0.00,,2013-09-05 17:23:00,
2013-09-05 12:43:00,84.0,67.0,30.08,South,182,3.0,8.0,57,0.00,,,0.00,,2013-09-05 17:43:00,
2013-09-05 12:52:00,82.0,66.0,30.07,SSE,167,2.0,6.0,59,0.00,,,0.00,,2013-09-05 17:52:00,
2013-09-05 13:12:00,81.0,67.0,30.06,South,190,2.0,8.0,62,0.00,,,0.00,,2013-09-05 18:12:00,
2013-09-05 13:22:00,81.0,67.0,30.06,South,183,1.0,5.0,62,0.00,,,0.00,,2013-09-05 18:22:00,
2013-09-05 13:52:00,82.0,68.0,30.07,SSE,148,1.0,6.0,63,0.00,,,0.00,,2013-09-05 18:52:00,
2013-09-05 14:11:00,82.0,68.0,30.07,SSE,165,0.0,4.0,62,0.00,,,0.00,,2013-09-05 19:11:00,
2013-09-05 14:22:00,82.0,68.0,30.06,SSE,153,0.0,3.0,63,0.00,,,0.00,,2013-09-05 19:22:00,
2013-09-05 14:42:00,81.0,69.0,30.05,South,179,0.0,3.0,68,0.00,,,0.00,,2013-09-05 19:42:00,
2013-09-05 14:52:00,81.0,70.0,30.05,South,178,0.0,4.0,70,0.00,,,0.00,,2013-09-05 19:52:00,
2013-09-05 15:11:00,80.0,69.0,30.03,SE,142,1.0,5.0,70,0.00,,,0.00,,2013-09-05 20:11:00,
2013-09-05 15:22:00,81.0,70.0,30.03,North,360,0.0,6.0,69,0.00,,,0.00,,2013-09-05 20:22:00,
2013-09-05 15:52:00,81.0,69.0,30.03,ENE,60,1.0,7.0,67,0.00,,,0.00,,2013-09-05 20:52:00,
2013-09-05 16:12:00,83.0,69.0,30.02,SSE,167,3.0,10.0,62,0.00,,,0.00,,2013-09-05 21:12:00,
2013-09-05 16:21:00,84.0,69.0,30.01,SSE,159,2.0,11.0,61,0.00,,,0.00,,2013-09-05 21:21:00,
2013-09-05 16:54:00,85.0,69.0,30.01,South,172,3.0,9.0,59,0.00,,,0.00,,2013-09-05 21:54:00,
2013-09-05 17:13:00,85.0,69.0,30.01,ESE,107,3.0,12.0,58,0.00,,,0.00,,2013-09-05 22:13:00,
2013-09-05 17:24:00,84.0,69.0,30.01,NNW,330,2.0,13.0,60,0.00,,,0.00,,2013-09-05 22:24:00,
2013-09-05 17:53:00,85.0,69.0,30.01,SE,131,2.0,9.0,58,0.00,,,0.00,,2013-09-05 22:53:00,
2013-09-05 18:12:00,85.0,68.0,30.00,South,171,2.0,12.0,56,0.00,,,0.00,,2013-09-05 23:12:00,
2013-09-05 18:22:00,85.0,68.0,30.00,SW,217,3.0,9.0,56,0.00,,,0.00,,2013-09-05 23:22:00,
2013-09-05 18:53:00,83.0,66.0,29.99,SE,144,2.0,8.0,57,0.00,,,0.00,,2013-09-05 23:53:00,
2013-09-05 19:12:00,83.0,67.0,29.99,SSW,194,2.0,8.0,58,0.00,,,0.00,,2013-09-06 00:12:00,
2013-09-05 19:22:00,83.0,67.0,29.99,SSW,194,1.0,7.0,59,0.00,,,0.00,,2013-09-06 00:22:00,
2013-09-05 19:42:00,82.0,67.0,29.99,SSE,163,1.0,5.0,60,0.00,,,0.00,,2013-09-06 00:42:00,
2013-09-05 19:52:00,81.0,67.0,30.00,ESE,107,0.0,3.0,62,0.00,,,0.00,,2013-09-06 00:52:00,
2013-09-05 20:11:00,79.0,66.0,30.00,North,11,0.0,4.0,65,0.00,,,0.00,,2013-09-06 01:11:00,
2013-09-05 20:22:00,78.0,67.0,30.00,SE,146,0.0,4.0,68,0.00,,,0.00,,2013-09-06 01:22:00,
2013-09-05 20:42:00,76.0,66.0,30.01,ESE,121,0.0,3.0,71,0.00,,,0.00,,2013-09-06 01:42:00,
2013-09-05 20:52:00,75.0,65.0,30.01,SSE,166,0.0,4.0,72,0.00,,,0.00,,2013-09-06 01:52:00,
2013-09-05 21:11:00,74.0,65.0,30.02,NE,56,0.0,2.0,74,0.00,,,0.00,,2013-09-06 02:11:00,
2013-09-05 21:22:00,74.0,66.0,30.02,NE,53,0.0,3.0,76,0.00,,,0.00,,2013-09-06 02:22:00,
2013-09-05 21:42:00,73.0,66.0,30.01,ENE,65,0.0,6.0,78,0.00,,,0.00,,2013-09-06 02:42:00,
2013-09-05 21:52:00,72.0,65.0,30.01,SSE,163,0.0,4.0,80,0.00,,,0.00,,2013-09-06 02:52:00,
2013-09-05 22:11:00,72.0,66.0,30.01,South,188,0.0,3.0,81,0.00,,,0.00,,2013-09-06 03:11:00,
2013-09-05 22:22:00,72.0,66.0,30.01,ESE,120,1.0,6.0,81,0.00,,,0.00,,2013-09-06 03:22:00,
2013-09-05 22:55:00,72.0,65.0,30.01,South,182,0.0,7.0,80,0.00,,,0.00,,2013-09-06 03:55:00,
2013-09-05 23:14:00,71.0,64.0,30.01,SE,137,1.0,5.0,79,0.00,,,0.00,,2013-09-06 04:14:00,
2013-09-05 23:23:00,71.0,64.0,30.01,NE,36,1.0,8.0,78,0.00,,,0.00,,2013-09-06 04:23:00,
2013-09-05 23:54:00,71.0,63.0,30.01,SSE,157,2.0,9.0,76,0.00,,,0.00,,2013-09-06 04:54:00,